[ hide orbit diagram ]
For accurate long-term ephemerides, please instead use our Horizons system.This orbit viewer was implemented using two-body methods, and hence should not be used for determining accurate long-term trajectories (over several years or decades) or planetary encounter circumstances.
Orbital Elements at Epoch 2459200.5 (2020-Dec-17.0) TDB
Reference: JPL 18 (heliocentric ecliptic J2000)
Element | Value | Uncertainty (1-sigma) | Units |
e | .1457185130459018 | 4.42e-08 | |
a | 2.362203904128055 | 1.2686e-08 | au |
q | 2.017987063707291 | 1.0479e-07 | au |
i | 1.735039545059599 | 4.7447e-06 | deg |
node | 255.2294194953048 | 0.00014463 | deg |
peri | 295.0139079282321 | 0.00014564 | deg |
M | 226.4393270608782 | 1.9529e-05 | deg |
tp | 2459692.483569470188 (2022-Apr-22.98356947) | 7.4713e-05 | TDB |
period | 1326.094583919907 3.63 | 1.0682e-05 2.925e-08 | d yr |
n | .2714738483704894 | 2.1869e-09 | deg/d |
Q | 2.706420744548819 | 1.4534e-08 | au |
|
| | Orbit Determination Parameters
Additional Information
|
[ hide covariance matrix ]
Orbital Elements at Epoch 2457567.5 (2016-Jun-28.0) TDB
Reference: JPL 18 (heliocentric ecliptic J2000)
Element | Value | Uncertainty (1-sigma) | Units |
e | .1450737322405778 | 4.4377e-08 | |
q | 2.020201711661598 | 1.0519e-07 | au |
tp | 2457039.976977848440 (2015-Jan-17.47697785) | 6.1532e-05 | TDB |
node | 255.2528438162485 | 0.0001447 | deg |
peri | 295.1306756495639 | 0.00014572 | deg |
i | 1.733982818859948 | 4.7447e-06 | deg |
|
| | Orbit Determination Parameters
Additional Information
|
Orbit Covariance (6×6)
|
|
e |
q |
tp |
node |
peri |
i |
e |
1.96933893116318E-15 |
-4.642876561088526E-15 |
4.650161468561802E-13 |
8.253385700550644E-15 |
1.624454768354647E-13 |
-1.25066368277329E-16 |
q |
-4.642876561088526E-15 |
1.106397888561623E-14 |
-7.537600031133483E-13 |
-2.184144088761387E-14 |
-2.818957609692621E-13 |
4.679619962912823E-16 |
tp |
4.650161468561802E-13 |
-7.537600031133483E-13 |
3.786136978536382E-9 |
-1.94182245770262E-11 |
1.072951526518355E-9 |
8.243122792322622E-13 |
node |
8.253385700550644E-15 |
-2.184144088761387E-14 |
-1.94182245770262E-11 |
2.093902576911954E-8 |
-2.093453045143043E-8 |
-1.870985429490664E-10 |
peri |
1.624454768354647E-13 |
-2.818957609692621E-13 |
1.072951526518355E-9 |
-2.093453045143043E-8 |
2.123429559996419E-8 |
1.872601315129593E-10 |
i |
-1.25066368277329E-16 |
4.679619962912823E-16 |
8.243122792322622E-13 |
-1.870985429490664E-10 |
1.872601315129593E-10 |
2.251230014171073E-11 |
|
Physical Parameter Table
Parameter |
Symbol |
Value |
Units |
Sigma |
Reference |
Notes |
absolute magnitude |
H |
16.7 |
|
n/a |
MPO436733 |
|
|
146016 (2000 CS115) Discovered 2000-Feb-01 by CSS at Catalina |
Reference: 20070106/Numbers.arc | Last Updated: 2007-01-09 |
|
|